Theta_e
309 309 309 309 309 309 309 310 310 310 310 310 310 310 310 310 310 310 311 311 311 311 311 311 311 311 312 312 312 313 314 314 315 315 315 317 316 314 313 314 314 314 313 313 315 315 315 316 316 316 316 316 317 319 320 320 318 318 329 327 325 331 328 326 323 318 320 320 318 317 317 318 318 317 316 317 317 317 317 317 317 317 317 316 316 316 317 317
309 309 309 309 310 309 310 310 310 310 310 310 310 310 310 310 310 310 310 310 310 311 311 311 311 312 312 312 313 313 315 315 315 316 316 316 316 314 314 315 314 314 313 313 314 315 316 317 317 317 316 317 318 319 320 320 318 321 327 325 330 336 327 321 320 317 318 319 318 318 318 318 318 317 317 317 316 317 317 317 317 317 316 315 316 316 316 316
309 309 310 310 310 310 310 310 310 310 310 310 310 310 310 311 311 311 311 311 311 311 311 311 311 311 312 312 313 314 315 315 316 317 315 314 314 315 315 316 315 314 314 314 314 315 317 317 317 317 316 317 318 320 321 320 320 321 322 326 335 331 321 320 318 317 318 319 318 318 319 318 318 318 317 317 316 317 317 317 316 316 316 315 316 316 316 317
309 310 310 310 310 311 311 311 311 311 311 311 311 311 311 311 311 311 311 311 311 311 311 311 311 312 312 312 313 314 315 317 318 316 314 314 315 315 316 316 316 315 314 313 314 315 316 316 316 317 317 317 317 320 320 320 321 321 321 328 330 321 319 321 319 318 318 319 318 318 318 318 318 318 317 316 317 317 316 316 316 316 316 316 316 316 316 317
310 310 310 311 311 311 311 312 312 312 312 312 312 313 312 312 312 312 312 312 312 312 312 312 313 313 313 314 314 315 316 318 318 315 314 315 315 316 316 316 315 315 314 314 314 314 316 316 316 316 316 316 316 318 320 320 320 320 320 322 322 318 319 321 319 318 317 318 318 317 318 318 318 318 317 317 317 317 315 316 316 315 316 316 316 316 316 316
310 311 311 311 312 312 313 313 313 314 314 314 314 315 314 315 315 314 314 314 314 314 315 315 315 315 315 316 316 316 316 318 318 316 316 315 315 316 316 316 315 314 314 314 313 314 315 315 315 316 316 316 316 317 319 319 319 321 321 318 318 319 318 318 318 317 317 317 317 317 318 318 317 317 317 316 316 316 315 316 316 315 316 316 316 316 316 316
311 312 313 313 314 315 316 316 317 317 317 318 318 318 319 319 319 319 319 319 319 319 319 319 319 319 319 319 318 318 317 317 317 318 318 317 316 316 316 316 315 314 314 314 314 314 314 315 315 316 316 315 316 316 316 317 317 320 322 319 318 319 318 318 318 317 317 317 317 317 317 317 317 318 317 316 316 316 317 317 316 317 316 316 316 316 316 316
313 314 315 316 318 319 319 320 320 320 321 321 322 322 322 322 322 322 322 322 322 322 322 322 323 323 323 322 322 320 319 319 319 318 318 317 317 316 316 315 315 314 314 314 314 314 316 316 316 315 315 315 315 316 316 316 316 317 319 318 317 318 317 317 317 317 317 317 316 316 315 316 317 317 316 316 317 317 317 317 317 316 316 316 316 316 316 316
315 317 319 320 320 320 320 320 320 320 320 320 320 320 320 320 320 320 319 319 319 319 320 320 321 322 323 323 322 320 321 323 322 320 319 317 317 316 316 316 315 315 315 315 314 315 316 316 316 316 316 316 316 315 315 316 317 316 316 316 315 315 316 316 316 316 316 316 315 315 314 315 315 316 316 316 317 317 317 317 317 316 316 316 316 316 316 315
319 319 320 319 318 317 317 317 317 317 317 317 317 317 317 317 317 317 317 317 316 316 316 316 316 317 318 320 321 322 323 324 322 321 319 317 316 316 318 318 316 315 315 315 315 316 316 316 317 317 317 317 315 315 315 315 316 315 314 314 314 315 315 315 315 315 314 314 314 314 314 314 314 315 316 316 317 317 317 316 317 316 315 316 316 316 315 314
319 318 317 316 315 315 316 316 316 316 316 316 316 316 316 316 316 316 316 316 316 316 316 316 316 315 315 315 318 320 322 322 322 320 319 318 318 319 322 321 317 315 315 315 315 316 316 316 317 317 317 316 314 315 315 314 315 315 314 315 315 314 315 315 314 314 314 314 314 314 314 313 313 315 316 316 317 317 316 316 316 316 315 315 315 314 314 313
316 315 314 315 315 315 315 315 315 315 315 316 316 316 316 316 316 317 317 317 317 317 317 317 316 316 315 313 315 318 318 319 320 321 322 322 322 321 321 319 317 314 314 315 316 316 316 317 317 317 316 315 315 315 315 314 314 314 314 315 316 313 314 315 313 314 314 314 315 314 315 316 315 315 317 316 317 316 316 316 315 315 315 315 315 313 313 313
314 314 314 314 314 315 315 315 315 315 315 316 316 317 317 318 319 319 320 319 319 319 319 318 317 317 315 314 316 317 317 317 318 319 320 321 321 320 318 317 316 314 313 314 316 317 317 317 316 317 316 315 316 315 315 314 314 315 314 314 316 315 316 316 314 315 314 313 315 315 317 321 319 315 316 317 317 316 316 317 315 315 315 314 313 313 313 313
313 314 314 314 314 314 314 315 315 316 316 318 318 320 320 321 321 321 321 321 321 321 321 321 319 318 316 316 317 318 317 317 317 317 317 317 318 318 317 316 316 314 312 313 316 317 318 318 317 316 315 315 315 315 315 314 314 315 313 315 316 315 320 319 314 316 315 313 314 315 317 321 320 315 316 317 316 316 315 316 315 315 314 313 312 312 312 311
313 313 313 314 314 314 315 315 316 318 319 321 322 322 322 322 322 322 322 322 322 322 322 321 320 319 316 317 318 317 317 316 316 316 316 316 316 316 316 316 315 314 313 314 315 316 317 317 316 315 314 314 314 314 316 316 317 315 315 323 322 316 321 321 314 314 316 314 313 315 318 319 317 315 316 316 316 316 314 314 314 313 313 312 312 311 310 310
313 313 313 314 315 315 316 317 319 321 322 322 322 322 322 322 322 322 323 322 322 322 321 320 319 317 315 316 318 317 316 316 316 317 316 316 316 315 315 315 314 313 313 313 314 314 315 315 314 314 313 314 315 316 320 321 322 320 316 323 324 318 319 321 317 314 314 315 313 313 317 318 317 315 316 317 315 315 313 314 313 312 312 311 310 309 309 309
314 314 315 316 316 317 318 320 321 322 322 322 322 322 322 322 322 322 323 322 323 321 319 319 317 315 316 317 317 317 317 317 317 317 316 315 315 315 315 315 313 312 312 312 312 313 314 313 313 314 314 314 315 317 322 322 323 325 320 320 322 321 319 320 322 316 312 315 315 314 315 315 316 315 315 316 315 314 313 313 312 311 310 309 308 308 308 308
315 316 317 318 319 320 321 321 322 321 322 321 322 322 322 323 323 323 323 322 321 319 317 316 315 317 319 318 317 317 317 317 316 316 315 314 314 314 314 314 313 312 311 311 312 312 313 312 314 317 315 314 314 315 319 322 322 325 323 321 321 321 319 320 321 317 314 316 316 316 315 314 315 313 313 315 315 313 313 312 311 310 308 307 306 306 305 306
317 318 319 320 320 321 321 321 321 322 322 322 322 322 323 323 323 322 321 319 319 321 321 317 316 322 322 318 317 318 317 316 316 315 315 314 314 313 313 314 313 312 312 313 313 312 312 314 315 318 318 317 316 314 317 320 320 321 321 321 320 320 320 319 319 318 316 317 317 317 316 314 315 314 313 314 315 313 312 312 309 308 306 305 305 304 304 304
318 319 320 321 321 321 322 321 322 322 322 322 322 322 323 322 324 322 318 318 320 322 323 320 319 321 321 320 320 320 318 317 316 316 316 315 315 314 313 313 313 312 313 317 317 312 313 317 319 319 320 320 317 315 315 315 316 317 318 318 319 320 320 319 319 318 315 316 320 319 317 316 317 317 314 313 314 313 311 310 307 306 305 304 304 303 303 303
319 320 320 321 321 322 322 322 322 322 322 322 321 322 322 321 323 322 319 321 322 322 322 322 322 321 321 322 321 321 320 318 317 317 316 315 314 314 314 313 313 315 315 316 316 313 313 318 321 320 319 319 318 316 314 315 316 316 317 319 320 322 321 318 318 318 314 315 320 319 315 317 319 317 315 313 313 312 309 308 306 305 304 303 303 302 302 303
320 321 321 321 322 322 323 322 322 322 322 322 321 321 321 321 322 321 320 320 322 322 322 322 322 322 322 322 321 321 321 319 317 317 316 314 314 315 315 314 315 318 317 314 315 316 316 318 320 318 315 316 317 316 316 317 317 317 319 320 321 322 321 320 320 318 314 315 320 320 316 317 318 317 314 312 311 310 308 308 306 305 304 303 302 302 302 303
321 321 321 322 323 323 323 322 322 322 321 321 321 321 321 321 321 321 319 318 320 322 322 322 322 322 322 322 321 321 320 319 318 317 316 314 314 315 314 314 316 318 318 316 317 319 319 319 317 314 313 315 316 316 317 318 317 319 319 319 322 321 319 322 323 318 314 314 317 317 315 316 316 316 314 309 309 308 307 307 305 304 304 302 302 302 302 302
322 322 322 323 324 324 323 323 322 321 321 321 321 321 321 321 321 320 318 317 319 321 320 320 320 320 321 320 320 320 318 318 318 317 317 315 315 315 314 314 315 316 317 316 317 318 320 319 315 313 315 316 316 317 318 317 319 323 323 321 322 320 318 320 321 319 317 319 320 315 318 323 319 315 314 309 308 308 306 306 305 304 303 302 301 301 301 301
323 323 323 324 324 325 324 323 322 321 322 321 321 322 322 321 320 318 316 318 321 321 319 319 319 319 318 317 318 318 316 317 317 317 317 315 315 315 314 314 315 317 317 317 316 317 318 316 315 317 317 317 317 317 319 320 321 324 326 323 320 319 320 319 319 320 320 323 322 315 321 331 327 318 315 311 309 308 306 305 304 303 303 301 301 300 300 300
323 324 324 324 325 325 323 322 322 322 322 322 322 322 322 321 319 318 317 320 324 323 320 319 319 318 316 316 317 316 317 317 315 316 316 315 315 315 315 316 316 317 318 317 318 319 318 316 317 319 319 320 320 319 321 321 320 321 324 323 320 318 318 318 318 319 321 323 320 315 320 326 323 320 319 316 313 309 306 305 304 303 302 301 300 299 299 299
323 324 324 324 325 325 323 323 323 322 321 323 323 321 321 320 318 316 318 324 327 324 320 318 317 316 314 314 314 316 321 318 313 315 315 314 315 314 315 317 316 317 316 315 320 322 318 317 318 319 319 321 322 321 321 321 321 323 323 319 318 318 318 320 319 319 323 321 317 317 318 318 318 319 319 318 316 310 306 305 304 303 302 301 300 299 298 298
323 323 324 324 325 325 323 323 323 321 321 323 322 320 320 319 317 317 322 329 328 321 318 316 314 314 312 312 313 314 316 315 314 315 314 314 315 313 314 316 316 317 314 314 322 323 317 318 320 320 319 320 323 323 321 320 320 323 321 316 317 318 319 320 319 320 321 317 317 319 317 317 322 323 318 315 314 310 307 306 303 302 301 300 299 299 298 297
323 323 324 324 325 325 324 323 322 321 321 321 320 320 319 318 316 317 323 328 325 319 316 314 313 313 311 311 312 311 311 311 313 313 312 313 314 312 313 314 312 313 313 314 321 322 316 315 317 320 321 321 323 323 321 322 319 317 316 317 320 320 318 319 318 319 318 316 318 320 317 317 323 327 321 315 316 312 307 305 303 302 301 300 299 298 298 297
323 324 324 324 325 324 324 323 321 321 320 319 320 320 320 319 317 318 324 324 321 319 314 312 313 312 311 312 312 311 310 311 311 311 311 312 313 311 312 311 310 314 320 319 320 319 314 310 311 316 318 318 319 316 315 317 314 313 316 320 323 322 320 320 321 321 318 318 321 320 318 317 320 329 325 317 317 313 307 305 303 301 301 300 299 298 297 297
323 324 324 325 325 324 323 323 321 320 319 318 320 320 319 319 319 322 324 321 320 320 314 312 314 311 312 315 315 312 310 311 311 312 313 312 312 312 311 313 312 318 325 324 321 318 314 313 313 313 312 313 315 313 312 314 312 314 320 320 320 324 323 320 319 320 318 322 327 323 318 315 318 327 322 312 311 311 308 305 303 301 300 299 299 298 297 296
324 324 324 324 324 323 322 321 321 319 317 318 320 320 319 321 322 323 322 320 323 322 317 316 315 312 314 316 317 315 312 312 311 312 315 315 314 313 314 318 319 320 325 324 322 320 319 318 314 312 312 311 315 316 316 319 317 317 320 318 318 321 322 320 319 318 318 323 326 322 317 316 318 320 314 308 307 308 307 304 302 300 299 299 298 297 296 296
325 324 324 324 323 323 321 321 320 318 317 319 319 319 320 322 323 321 320 322 324 321 318 319 316 315 316 316 318 317 314 314 312 311 314 315 316 315 315 318 320 321 323 321 321 321 324 322 315 313 314 312 314 316 319 323 318 314 317 319 319 321 321 323 322 319 320 322 322 318 316 319 321 315 307 303 303 303 303 301 300 300 299 298 297 296 296 296
324 323 323 323 322 321 320 321 320 318 319 319 319 319 321 321 321 320 320 322 321 319 320 320 318 317 318 319 320 318 316 317 313 312 315 315 316 319 318 316 315 318 321 320 321 322 324 325 321 318 317 314 313 313 320 326 318 313 317 319 320 325 326 324 322 321 324 325 322 318 317 323 324 313 304 301 300 300 300 300 299 299 298 298 297 296 296 295
323 322 322 321 321 320 320 320 319 318 319 319 319 321 321 321 322 321 321 322 320 321 320 319 321 320 320 322 322 318 317 318 315 314 317 317 319 323 325 320 314 315 319 321 322 321 320 325 322 315 313 313 313 312 316 322 319 314 316 316 318 324 325 322 321 322 323 323 322 321 322 322 315 306 302 301 299 299 299 298 298 298 297 297 297 296 296 296
322 321 321 321 320 320 319 319 318 318 319 319 320 321 319 320 323 322 322 321 320 322 321 319 322 323 322 323 323 319 316 318 318 316 318 319 320 322 325 321 315 314 317 321 323 320 320 324 319 312 311 311 312 312 311 315 321 318 315 320 323 322 319 319 322 321 318 320 321 320 322 318 309 305 303 301 300 299 298 298 297 297 297 296 296 296 296 297
320 320 320 320 320 320 319 318 318 318 319 319 320 321 318 319 321 321 320 318 317 320 321 321 322 322 322 323 324 321 318 320 320 318 321 321 319 319 320 317 314 313 314 317 321 321 321 323 319 316 316 311 308 310 310 310 317 319 317 320 323 319 318 319 321 320 318 319 319 318 319 318 315 312 305 301 302 300 298 298 297 297 297 296 296 296 297 297
318 318 318 319 319 318 318 318 317 318 320 319 320 320 319 318 317 317 318 316 316 319 321 322 323 321 321 322 323 322 322 322 320 319 322 323 319 319 319 316 313 311 312 313 317 321 321 321 321 319 318 314 310 312 316 313 312 315 315 316 317 318 321 321 319 320 320 318 319 320 319 318 318 315 306 303 303 301 299 299 297 297 297 296 296 296 296 297
316 315 316 318 318 317 317 317 317 318 320 321 321 320 318 317 315 315 316 316 317 320 322 322 323 321 320 319 320 321 321 321 320 319 322 322 320 318 317 316 314 311 311 313 317 320 320 320 321 318 315 316 315 316 320 318 312 311 313 314 316 317 319 319 318 320 320 318 319 320 319 321 318 312 309 308 303 300 300 299 298 297 296 296 297 297 297 298
313 313 314 316 316 316 315 316 317 319 320 321 320 319 317 316 315 314 315 315 317 320 321 321 321 320 319 319 317 318 320 321 320 320 322 322 321 319 317 317 315 311 311 314 317 319 319 319 320 319 315 315 318 318 320 320 315 314 314 314 315 315 317 317 316 318 319 317 319 316 317 322 316 307 308 308 303 300 300 299 298 297 297 297 298 299 299 299
312 312 314 314 314 314 315 316 317 318 319 320 318 317 315 315 316 316 315 315 316 317 318 319 320 319 318 318 317 316 319 322 321 320 321 321 319 319 317 315 314 313 314 317 319 318 317 318 320 320 318 317 320 319 317 316 314 314 316 317 316 315 316 315 314 316 316 315 317 315 315 320 313 304 306 306 302 300 299 298 297 297 298 299 299 300 300 300
311 313 314 314 313 313 314 317 317 316 319 319 317 316 315 315 316 317 315 315 316 316 316 317 319 319 318 317 317 317 319 322 321 320 321 320 319 318 316 313 312 313 316 319 318 314 314 317 318 319 317 316 318 316 312 311 312 313 314 316 318 317 316 315 314 316 316 314 315 314 315 316 308 303 304 302 300 300 298 298 298 298 300 300 300 300 300 300
310 312 314 313 312 313 314 316 316 316 317 317 315 315 315 315 316 317 316 315 316 317 316 316 317 317 318 317 317 318 320 320 320 320 321 321 318 316 315 314 314 314 317 319 316 313 314 316 316 317 316 315 316 314 312 313 314 315 315 314 315 314 313 314 314 314 315 315 315 314 314 313 307 301 300 300 299 299 299 300 300 299 300 301 301 301 301 300
309 310 312 312 312 313 314 314 314 315 316 315 315 315 315 315 315 316 317 315 316 317 317 317 316 316 316 316 316 318 318 318 318 318 319 320 318 314 311 313 315 313 314 317 315 313 314 314 313 315 315 315 315 314 314 315 315 314 315 314 312 310 310 311 312 313 312 312 313 313 313 313 307 301 300 300 300 298 299 300 301 300 301 302 302 302 300 299
308 308 310 312 312 313 314 314 314 315 315 314 315 316 315 315 315 315 316 315 315 315 316 317 316 315 316 316 316 317 317 317 317 317 316 317 316 313 310 311 312 309 309 312 311 311 314 314 313 314 314 313 313 313 313 314 312 310 311 311 309 307 306 307 309 309 309 309 310 310 311 311 308 303 303 303 302 301 300 300 300 301 302 303 303 302 299 297
308 309 309 310 312 313 313 314 313 314 315 314 315 315 315 316 316 315 315 315 315 314 315 316 315 315 316 316 316 316 316 316 316 316 315 315 315 313 310 310 310 308 308 308 308 311 313 312 312 313 313 311 311 312 312 310 309 309 309 309 307 306 305 305 306 306 307 306 306 306 307 307 306 306 305 305 304 304 303 300 300 301 302 302 302 300 298 296
308 309 310 310 312 312 312 313 313 313 314 314 315 315 315 316 316 315 315 315 315 315 314 314 314 314 315 315 314 315 315 314 314 314 314 314 313 312 310 309 309 308 308 308 308 311 312 311 311 312 312 311 310 310 308 306 305 306 307 306 306 305 304 304 304 305 305 304 304 304 304 304 304 304 304 305 307 306 302 300 300 302 302 302 301 299 296 295
308 308 309 310 312 312 312 312 313 313 313 314 314 315 315 315 316 316 316 314 314 314 315 314 313 314 314 314 314 314 313 313 313 313 313 312 312 311 309 308 308 308 308 307 307 309 311 311 310 309 309 309 308 307 305 303 303 304 304 304 304 304 303 303 303 303 304 304 303 303 304 304 304 303 304 305 305 305 303 301 301 302 301 301 299 298 296 295
306 306 306 307 309 310 311 311 312 312 313 313 313 314 314 315 315 315 315 314 313 312 313 314 313 313 314 313 313 313 313 312 312 311 311 312 311 311 310 308 307 306 307 307 306 306 309 310 308 306 307 307 306 305 304 304 304 303 303 304 304 303 303 303 303 303 303 303 303 304 304 304 303 303 304 304 303 301 301 300 301 301 300 300 299 298 298 297
303 303 303 304 306 306 308 310 311 312 313 313 313 313 313 313 314 313 313 313 313 312 312 312 313 313 313 313 313 313 312 312 313 311 311 311 310 310 310 309 306 304 306 307 305 304 306 308 305 303 304 305 304 303 303 304 304 303 303 303 302 302 302 302 303 303 303 303 303 303 303 303 303 302 302 302 301 300 299 298 298 299 299 299 299 298 298 297
301 301 301 302 304 306 306 308 310 311 313 313 313 313 312 313 313 312 311 310 311 312 311 311 312 312 311 311 312 311 309 309 311 309 307 308 308 307 308 307 305 305 306 306 305 305 306 306 305 303 303 304 303 301 302 303 303 303 302 301 301 301 301 302 302 302 303 302 302 302 302 302 303 302 300 300 299 298 297 297 296 296 297 297 297 297 296 296
299 299 299 299 302 305 306 308 309 310 311 312 312 312 312 312 311 311 311 308 307 308 310 309 310 311 310 309 310 309 306 305 306 305 304 305 304 303 304 304 303 304 306 305 304 306 306 305 305 304 303 303 302 301 302 302 301 301 301 300 300 300 300 300 301 301 302 301 301 301 301 302 303 301 300 300 298 297 296 296 295 294 295 295 295 294 294 294
Wind_Speed
4 4 4 3 3 3 3 3 3 3 3 3 3 3 3 3 3 4 4 5 5 6 6 6 7 7 8 9 10 10 11 12 14 15 16 12 6 2 1 3 4 4 4 3 1 1 1 3 3 3 3 3 2 1 1 1 1 2 2 3 1 2 3 3 1 3 1 3 3 1 5 5 2 8 9 7 9 14 19 24 23 21 21 21 21 19 19 21
4 4 3 3 3 3 3 3 3 3 3 3 3 4 4 4 4 5 5 6 6 7 7 7 8 8 9 10 10 12 12 13 16 15 12 7 3 5 2 5 5 4 4 3 1 1 3 6 4 2 3 2 0 2 3 3 4 3 3 3 3 5 5 5 4 7 4 1 4 5 7 7 6 11 12 6 11 13 13 22 26 26 27 22 18 15 14 16
5 5 4 4 4 4 4 4 4 4 4 4 5 5 5 5 6 6 6 7 7 8 8 9 9 9 10 10 11 12 13 15 15 8 4 3 7 5 5 9 8 5 5 3 2 3 3 4 4 1 2 2 3 5 5 5 5 5 4 2 6 6 6 10 10 10 7 4 4 5 7 10 11 12 10 7 11 12 9 16 22 25 29 26 21 19 19 20
6 6 5 5 5 5 5 5 5 5 5 5 6 6 6 6 7 7 8 8 8 9 9 10 10 10 10 11 11 11 14 14 7 3 5 6 6 5 9 11 10 6 5 4 3 4 4 1 2 3 3 4 5 7 6 7 6 5 6 4 6 4 4 10 13 14 11 8 5 6 8 10 13 11 11 11 9 8 13 20 22 26 30 30 27 23 22 23
7 7 6 6 6 6 6 6 6 6 6 7 7 7 8 8 8 9 9 9 10 10 11 11 11 11 12 12 12 11 11 7 3 2 2 3 2 7 10 12 10 6 5 4 3 4 5 5 4 4 4 4 3 3 6 12 10 4 6 10 10 6 4 10 14 15 14 11 9 8 8 10 12 11 15 13 7 11 21 26 26 29 32 31 30 27 26 25
8 8 7 7 7 7 7 7 8 8 8 9 9 10 10 10 11 11 11 11 12 12 12 13 12 13 13 13 12 11 7 1 2 2 4 6 7 9 12 13 9 5 6 4 4 4 4 5 5 5 3 3 4 4 7 13 12 5 5 10 14 12 7 12 17 16 16 13 10 9 9 13 11 12 17 15 16 25 30 30 29 31 31 30 31 29 28 26
9 8 8 8 8 8 9 9 9 10 10 11 11 11 11 12 12 12 13 12 13 13 13 14 14 13 13 13 13 10 6 8 10 8 8 9 9 11 13 11 6 4 5 5 5 4 3 3 6 7 3 3 5 7 10 10 9 9 4 6 11 12 10 15 18 16 16 15 15 14 12 13 11 11 14 18 27 32 30 29 29 28 28 28 29 27 25 23
9 9 9 9 9 10 10 10 11 11 11 12 12 12 12 12 12 13 13 13 13 13 13 14 13 13 12 12 11 8 9 13 12 10 10 9 10 12 10 7 4 5 5 6 6 3 2 3 7 8 3 3 5 5 9 9 3 6 3 4 6 9 12 17 18 19 21 23 23 19 14 15 18 15 14 23 31 29 25 26 26 24 23 23 22 21 20 18
10 11 10 11 11 11 11 11 11 11 12 12 12 12 12 12 12 12 12 12 13 12 13 13 13 13 11 11 9 7 10 11 9 9 10 10 12 10 7 6 6 6 5 6 7 5 4 5 7 6 3 4 4 6 7 5 2 2 4 6 8 11 15 19 20 23 25 26 24 15 14 19 21 15 12 24 28 24 26 26 24 22 21 20 19 18 17 16
12 12 11 11 11 11 11 11 11 11 11 11 11 11 11 11 11 11 11 11 11 11 12 12 12 12 11 11 6 4 8 8 6 7 8 10 11 9 9 10 9 8 6 7 8 9 8 7 7 5 4 5 3 6 7 2 2 6 8 10 11 14 19 23 23 28 27 23 23 13 13 21 16 5 8 23 24 23 28 26 21 21 19 17 16 15 13 11
12 11 11 10 10 10 10 10 10 10 10 10 10 10 10 10 10 10 10 10 10 10 10 11 11 11 11 11 7 7 9 8 7 8 9 11 12 13 14 12 10 10 8 9 10 11 11 10 9 6 4 3 3 8 7 2 3 8 10 10 13 15 20 25 22 28 21 12 19 13 12 18 7 2 12 23 23 21 24 21 17 15 16 17 16 12 10 8
11 10 10 9 9 9 10 10 10 10 9 9 9 8 8 8 8 9 9 9 9 9 10 10 10 10 11 11 12 12 12 11 11 12 13 15 16 16 14 11 10 10 11 11 12 12 13 13 12 8 5 2 3 6 4 3 7 10 8 4 10 9 12 21 18 23 15 6 14 8 4 12 2 7 16 20 20 18 21 23 20 18 20 21 16 9 7 7
10 10 9 9 9 9 9 9 9 9 8 8 8 8 8 8 8 8 9 8 9 9 9 10 10 10 10 11 12 12 11 11 12 13 14 16 17 15 12 10 10 11 11 12 14 13 14 15 13 10 7 5 3 3 4 7 8 9 4 2 5 6 6 16 14 14 9 5 10 9 1 9 5 10 14 16 18 18 24 29 26 24 24 19 10 5 7 6
10 10 9 9 8 8 8 8 8 8 8 7 8 8 8 8 8 8 8 8 9 9 9 10 10 10 10 11 11 11 11 11 12 13 14 16 16 15 12 10 9 10 11 13 14 13 13 13 13 10 9 8 7 5 5 7 4 4 1 2 1 1 4 12 10 5 1 3 11 11 3 7 8 13 15 16 17 19 24 28 28 25 21 12 6 6 8 9
9 9 8 8 8 8 8 7 7 7 7 7 7 7 7 7 8 8 8 8 9 9 9 10 9 9 10 12 12 11 11 11 11 12 12 14 14 13 10 9 9 10 11 13 14 13 11 11 10 8 6 8 6 3 3 4 3 2 0 3 2 3 4 11 11 5 3 2 5 6 3 6 8 15 20 18 20 23 21 24 26 18 10 8 9 10 12 12
9 8 8 8 8 8 7 7 7 7 7 7 7 7 7 7 8 9 9 9 10 9 9 8 8 6 7 10 9 7 8 9 10 10 11 12 12 10 8 6 8 10 12 12 12 11 10 9 6 4 4 5 2 3 4 4 4 2 2 4 3 3 3 5 8 3 6 5 1 3 3 4 5 13 24 23 23 24 19 21 18 9 12 12 12 13 13 13
9 8 8 8 9 8 7 7 6 6 7 7 7 7 8 9 9 9 9 9 9 8 7 7 6 5 7 10 9 8 9 8 9 10 10 10 10 9 6 5 7 9 10 9 9 8 7 6 4 3 3 2 2 5 4 2 4 4 1 3 4 4 2 3 6 4 5 6 2 4 4 7 6 11 24 28 27 21 15 15 8 13 14 15 15 16 16 15
9 9 8 9 9 8 7 7 6 5 6 6 7 7 8 9 8 8 8 8 7 4 4 6 4 2 6 8 7 7 8 7 7 8 8 8 7 6 4 4 5 6 7 5 5 6 5 5 4 1 1 1 1 4 2 4 5 4 4 3 4 4 3 4 5 2 3 2 4 5 6 9 8 11 21 30 30 17 10 8 11 16 16 18 18 19 20 19
10 9 9 9 8 7 7 6 5 5 5 6 7 7 7 7 6 6 5 5 4 2 2 5 6 2 4 7 8 9 9 8 7 8 7 6 4 5 6 4 4 8 7 3 3 7 7 4 3 1 1 3 5 7 9 9 8 7 7 5 5 5 5 6 7 4 4 3 5 7 8 7 7 9 15 27 28 16 9 7 16 18 19 20 20 22 22 22
11 10 10 9 7 6 6 5 5 5 5 5 6 6 4 4 3 2 4 6 7 7 8 10 11 13 15 15 13 13 12 9 9 10 8 6 6 7 9 8 7 6 4 4 4 8 9 5 2 4 6 9 10 11 11 9 7 7 6 6 6 5 5 6 6 5 3 2 6 8 5 5 7 7 12 23 22 11 4 13 17 18 20 21 22 23 22 23
12 12 11 9 8 6 5 4 4 4 5 5 6 5 3 2 2 3 5 9 13 14 16 18 19 21 23 22 17 15 14 10 9 10 8 8 9 8 10 9 6 3 4 6 5 4 7 5 6 10 11 12 11 9 8 7 7 7 6 6 5 5 6 6 6 7 2 2 6 5 2 5 7 8 15 19 11 4 9 16 16 19 21 21 23 23 23 24
14 13 11 9 8 5 4 4 3 4 5 4 5 5 3 3 4 5 6 9 15 17 17 20 21 23 25 23 20 20 17 11 8 9 8 10 12 8 10 9 4 3 4 5 5 3 4 4 9 14 12 10 9 7 6 7 7 6 5 3 3 4 4 6 6 5 0 3 5 5 3 6 8 9 15 10 7 7 10 17 17 20 21 20 22 23 24 25
15 13 11 9 6 5 4 3 3 4 4 3 4 4 4 4 5 6 5 6 13 17 16 18 22 25 25 22 19 19 17 12 8 9 9 11 14 11 10 9 5 4 4 5 6 5 4 6 14 17 11 7 9 8 7 7 5 5 4 3 5 4 2 4 5 4 1 2 3 4 4 5 7 8 7 7 14 15 16 20 20 20 22 22 22 23 25 26
14 12 9 7 5 4 4 4 4 3 3 2 2 2 3 4 4 6 6 4 6 12 16 16 15 16 17 16 16 14 13 10 8 8 12 14 14 10 9 10 7 4 5 7 9 9 6 8 14 13 8 7 9 9 7 6 4 4 5 5 5 5 5 6 4 4 3 4 2 1 4 4 6 8 2 6 12 15 16 19 20 20 22 23 23 24 25 25
13 11 9 7 5 4 4 5 3 2 1 1 0 1 2 3 3 6 6 3 3 7 10 8 6 6 8 9 11 10 6 7 7 8 13 17 15 8 7 11 9 4 7 8 8 8 8 10 11 7 6 7 7 8 7 6 3 4 4 7 8 8 8 6 2 4 4 5 3 1 3 5 5 7 5 5 6 8 10 14 17 17 18 21 23 23 23 24
14 12 10 8 5 4 5 5 4 3 1 2 1 0 2 1 2 5 4 2 2 4 4 4 3 3 5 6 8 7 2 4 7 10 14 18 16 9 4 7 6 4 7 5 3 3 5 9 8 6 7 7 7 7 6 6 4 3 5 6 7 7 6 5 2 2 0 4 3 2 1 5 6 5 5 5 5 7 7 9 12 14 16 19 21 21 21 23
16 13 11 9 5 5 5 5 5 4 3 3 1 1 1 0 0 2 3 2 3 2 3 2 2 2 3 5 9 8 2 2 6 10 16 16 13 8 4 3 3 3 3 2 0 3 3 5 4 4 4 5 6 6 5 7 6 4 5 3 3 4 5 5 4 3 3 3 5 2 3 4 6 4 9 10 5 7 6 6 8 12 15 18 20 20 20 22
17 15 13 9 6 7 8 7 7 6 6 5 3 4 3 2 1 1 3 2 2 3 3 1 2 3 5 7 9 6 3 5 5 6 14 14 10 6 3 4 2 2 3 2 3 5 1 3 4 5 4 3 5 5 4 8 5 5 4 4 5 5 4 3 4 2 2 2 5 3 4 2 6 5 9 9 5 5 6 6 6 10 15 17 18 18 19 21
19 17 13 9 9 11 12 11 10 9 8 7 7 6 4 3 2 2 3 1 0 2 2 2 2 4 6 6 5 3 4 4 2 4 9 10 10 4 1 3 1 2 4 2 5 6 1 2 3 5 5 4 6 3 2 7 4 4 3 4 4 4 4 4 4 3 3 3 4 6 5 3 5 6 5 2 4 6 6 6 7 11 15 16 17 16 17 20
21 18 14 14 15 15 14 13 12 11 10 9 9 7 5 4 2 2 2 2 1 1 3 3 2 4 6 4 1 3 3 2 3 6 5 4 8 5 0 2 2 2 3 3 2 5 2 2 1 2 4 5 4 1 3 4 3 3 5 5 6 5 5 4 2 4 3 3 6 8 9 6 3 6 4 2 3 7 9 7 8 12 15 16 16 15 15 18
24 20 19 21 20 17 14 13 13 13 13 11 9 8 5 2 2 3 4 1 1 1 4 2 1 5 6 3 2 3 2 3 4 7 3 2 4 3 1 1 2 3 3 5 3 5 3 1 2 3 4 4 5 2 3 4 3 5 5 4 4 4 4 5 4 4 2 5 6 7 8 7 4 6 3 3 5 4 11 10 11 13 15 18 16 14 15 16
25 23 23 23 20 17 14 13 12 14 15 13 11 9 5 2 2 3 2 1 0 2 3 3 3 4 5 3 3 5 3 2 5 5 3 3 4 3 3 3 3 2 2 3 3 4 3 4 4 1 2 5 5 2 2 5 5 5 4 5 4 3 3 2 1 0 3 6 6 4 4 4 6 5 2 4 7 4 9 13 16 17 19 20 17 15 15 16
28 27 25 22 19 17 15 13 13 16 17 16 13 8 3 2 4 3 3 2 1 2 2 3 3 3 4 3 2 4 3 2 5 4 3 4 3 4 4 4 5 3 1 4 1 2 3 5 2 1 2 6 8 4 2 2 1 4 4 4 4 2 1 3 4 2 3 5 5 3 3 2 6 3 4 4 5 9 18 21 22 22 22 21 19 17 16 16
30 26 22 19 17 16 15 14 15 17 18 19 13 5 2 3 3 3 6 5 1 1 2 2 2 2 3 2 3 3 3 2 5 5 3 4 3 3 4 5 5 3 2 3 1 2 2 5 3 4 2 6 9 6 6 4 3 5 5 6 4 4 4 3 4 3 3 4 4 3 1 3 3 1 4 5 10 17 23 25 24 24 22 20 19 17 16 16
26 21 19 18 18 17 15 15 17 19 21 20 11 3 4 4 1 3 5 4 1 2 1 1 3 3 1 2 3 3 2 2 4 5 3 4 4 3 3 4 7 6 3 2 2 2 4 5 5 2 1 7 7 4 6 6 1 3 3 4 2 4 4 2 3 4 3 2 4 3 2 2 3 2 3 7 13 17 20 21 22 21 20 19 18 17 17 16
23 20 19 19 20 18 16 19 21 23 25 19 7 4 6 4 3 4 3 2 2 3 3 1 2 2 1 2 2 2 1 1 3 3 2 4 4 4 5 3 6 10 7 4 3 2 2 5 3 3 2 4 5 3 3 4 1 1 3 3 5 4 5 1 4 2 2 2 4 2 2 2 2 2 2 6 8 10 11 14 17 18 18 18 17 16 16 16
24 23 22 21 20 17 18 22 23 25 25 15 5 6 5 4 6 5 2 2 2 2 4 2 1 3 2 1 2 2 1 1 1 2 1 3 3 4 6 2 1 7 7 3 2 2 2 3 3 2 1 3 2 1 1 1 3 3 3 4 3 0 3 3 1 2 1 4 3 3 6 5 2 2 1 4 6 6 5 8 12 15 16 16 16 16 16 15
23 21 21 21 19 17 20 24 24 25 21 10 7 7 4 4 6 5 3 3 2 2 3 3 2 3 3 1 1 1 2 1 1 2 1 3 3 1 3 1 3 3 1 2 2 1 3 1 5 2 4 2 2 3 3 4 4 4 3 2 1 1 2 0 1 2 4 6 4 4 8 6 4 4 4 5 7 7 6 7 8 10 13 15 16 16 15 14
18 16 14 17 19 19 22 24 25 25 16 6 8 7 3 3 5 5 6 4 2 2 2 2 2 1 2 3 1 0 1 1 2 2 1 2 3 1 3 1 1 6 7 4 3 1 2 1 4 2 1 1 3 3 2 3 3 2 2 2 1 3 3 2 2 3 4 5 5 5 6 4 3 4 6 9 10 10 9 7 6 9 14 17 18 17 15 14
14 9 6 12 20 21 23 26 25 20 10 5 6 4 2 3 6 9 9 4 2 2 2 2 3 2 2 2 2 2 2 3 4 3 2 2 3 1 3 1 2 2 7 6 3 1 1 2 3 4 3 1 0 1 5 4 1 1 2 2 1 1 1 2 2 2 3 3 4 5 5 4 3 1 3 9 10 10 10 8 7 12 17 18 18 17 15 13
12 5 2 9 18 22 27 25 17 10 5 2 3 3 3 3 3 8 12 10 6 2 2 4 4 5 4 3 3 3 3 3 4 3 3 3 3 2 0 2 3 1 3 5 3 1 1 2 2 2 3 2 4 5 4 5 4 3 2 3 3 2 1 3 4 2 3 3 4 4 6 5 2 3 2 4 7 8 12 12 11 16 20 20 20 17 14 11
12 4 1 6 15 24 26 16 8 6 4 3 4 5 5 3 2 6 9 9 8 4 3 3 4 5 4 4 4 4 3 4 4 5 4 3 4 3 2 3 6 5 3 2 0 0 2 2 2 3 4 4 6 6 2 1 3 4 3 2 3 3 3 3 5 3 1 2 2 2 4 3 1 2 3 4 8 12 18 19 17 21 24 22 20 16 12 10
12 5 3 5 14 25 20 6 4 5 3 3 5 5 6 4 3 6 7 7 6 5 4 3 4 6 5 5 5 5 5 4 4 6 4 2 3 1 2 4 4 5 4 1 1 1 3 2 1 3 4 3 5 5 4 4 2 1 1 1 2 2 2 3 4 1 1 3 3 2 4 3 1 2 1 5 11 15 19 20 20 22 23 21 18 15 14 13
10 7 5 6 14 24 17 4 4 6 4 3 3 5 8 7 7 7 6 7 6 4 3 3 5 8 7 5 6 6 6 5 4 4 4 3 2 2 4 5 6 3 2 1 2 2 1 1 2 1 2 4 5 5 4 5 3 1 2 1 3 2 1 1 0 1 1 4 4 4 5 3 1 1 1 3 7 10 14 18 19 19 19 18 17 17 16 15
8 6 7 11 18 24 16 6 3 5 6 7 5 7 8 7 10 13 10 9 10 8 5 4 8 9 6 5 5 5 6 5 3 2 3 3 2 1 5 7 7 6 4 3 6 6 3 2 3 3 3 5 4 3 3 2 2 0 2 3 1 1 1 0 1 1 2 1 1 3 4 3 2 1 2 2 3 6 12 16 17 17 18 18 18 19 19 18
8 4 5 9 17 24 22 16 7 3 5 8 6 8 10 7 7 14 15 12 14 14 7 4 8 8 4 5 6 5 7 5 4 3 3 4 2 0 5 8 8 9 8 7 7 6 2 1 3 5 6 7 6 6 4 3 1 2 4 6 6 5 3 3 2 3 3 0 3 7 7 6 8 7 5 6 6 7 10 14 18 20 20 20 20 20 20 19
8 4 6 7 10 15 19 18 13 6 5 8 5 4 11 10 5 8 13 11 13 14 6 1 6 7 6 8 7 5 6 5 5 5 4 4 2 1 5 7 8 10 10 8 6 4 4 2 4 5 6 6 5 5 1 3 2 5 5 7 10 9 4 4 4 4 2 1 7 10 7 6 10 12 8 6 7 7 9 15 20 22 22 22 21 19 19 19
8 4 10 13 8 6 10 15 17 13 9 9 6 4 9 12 9 8 9 7 9 13 8 3 7 9 8 9 7 5 5 5 5 6 4 4 3 3 3 2 3 8 7 5 4 4 4 4 4 4 5 6 4 3 2 1 2 5 6 8 10 12 10 6 7 8 6 6 9 10 9 10 11 11 9 6 8 10 12 14 17 17 17 18 17 17 18 19
9 5 9 13 7 6 13 20 21 17 13 10 7 8 10 12 12 8 6 4 5 10 11 7 8 10 9 8 7 5 6 6 5 4 3 3 3 4 3 1 0 4 3 2 2 3 3 2 2 3 3 6 5 3 2 1 3 5 7 10 11 12 11 8 10 12 9 9 11 11 12 14 12 10 8 10 12 10 8 7 7 7 7 7 9 14 17 18
9 5 5 7 5 6 10 14 14 11 12 11 9 10 10 10 10 6 5 6 5 6 10 10 8 9 9 8 8 6 6 7 6 5 5 5 3 3 3 1 2 2 2 2 1 0 2 1 1 2 0 5 4 1 2 1 4 6 10 13 12 11 10 10 12 11 9 10 12 12 12 12 10 8 8 10 9 5 3 3 3 3 3 4 7 11 14 15
12 6 2 1 3 5 5 6 8 7 7 9 10 10 9 10 10 6 1 4 6 6 9 12 9 6 6 7 7 7 5 7 8 7 6 6 5 3 1 3 5 4 1 1 1 1 1 1 0 3 2 5 3 3 1 4 4 7 13 17 15 11 10 10 9 8 9 11 11 10 9 8 6 6 7 6 3 2 2 3 4 5 5 6 8 11 12 13
14 9 5 1 1 4 4 4 6 7 7 8 10 10 10 10 9 7 2 2 3 5 9 13 12 6 4 6 7 8 10 12 12 11 9 7 7 7 5 5 7 5 3 3 1 0 3 3 1 3 2 5 3 3 3 2 3 7 12 13 14 12 11 10 9 9 12 10 8 8 8 7 5 5 5 3 2 2 4 5 5 7 8 8 9 10 10 11
Wind_Direction
183 185 183 185 184 190 195 194 198 200 213 221 228 236 238 244 252 257 265 271 277 285 289 295 300 306 310 314 319 321 325 322 318 315 312 313 291 244 6 359 355 346 333 326 293 257 85 42 29 41 21 53 82 227 143 240 175 98 86 101 261 224 201 212 225 328 250 250 311 40 31 32 354 344 336 312 290 283 291 292 290 289 284 285 294 304 302 295
198 199 201 203 206 210 213 216 218 224 229 235 240 246 250 254 260 263 269 274 279 285 288 293 297 301 306 311 316 318 323 321 316 316 314 306 181 150 71 4 356 332 319 316 293 169 88 37 20 37 359 354 169 218 192 190 179 166 130 133 228 209 235 277 316 342 2 305 342 18 2 352 321 324 331 310 281 286 289 290 293 294 294 298 299 297 305 311
206 208 212 214 221 224 230 235 236 243 245 250 255 255 259 262 266 269 273 276 280 283 286 290 293 297 302 306 311 316 324 323 322 338 19 105 127 104 1 348 348 325 301 284 214 155 106 18 331 248 269 274 234 222 195 179 192 202 161 156 241 222 269 297 317 336 346 342 2 1 328 318 308 312 319 288 281 288 270 277 287 289 295 304 302 296 302 309
211 213 217 220 228 232 239 247 249 256 259 262 265 265 268 269 272 275 276 279 281 283 285 288 291 295 297 302 307 315 325 329 337 44 94 114 101 21 342 335 335 318 279 265 236 181 157 207 271 238 238 261 247 228 205 197 201 189 168 185 233 233 283 289 306 318 321 335 340 320 319 311 304 303 295 285 289 287 265 270 277 280 290 298 300 302 303 304
218 220 224 229 235 238 245 252 257 262 265 267 270 272 273 274 275 276 278 280 281 283 285 287 289 292 295 299 303 313 329 346 23 53 151 159 1 334 328 325 321 297 252 258 247 200 185 191 204 231 243 268 258 222 215 213 204 180 202 216 232 245 274 282 298 309 307 314 312 311 314 302 301 293 283 280 264 265 273 281 285 285 289 292 296 301 301 301
226 228 231 236 242 248 253 257 263 265 268 270 272 275 276 277 278 278 280 281 282 284 285 287 289 292 295 297 301 310 321 290 261 299 253 262 287 304 313 316 313 273 245 246 228 202 200 193 201 232 228 253 258 226 244 232 209 211 252 233 241 250 262 285 296 305 303 301 297 299 296 292 296 289 285 276 264 274 283 287 288 290 291 292 294 296 297 300
235 238 242 248 252 257 261 264 267 269 272 274 275 278 279 281 283 283 284 285 285 286 287 288 290 292 295 297 301 303 277 259 270 275 273 268 268 291 307 307 298 253 239 230 229 210 208 199 211 235 226 252 258 234 270 280 220 210 266 253 253 266 277 292 300 305 303 296 292 295 292 281 275 280 290 284 281 287 293 293 291 293 295 294 294 295 299 302
245 250 254 258 261 263 266 268 270 272 274 276 278 280 282 284 286 287 288 288 288 289 288 289 290 291 294 297 301 293 269 275 283 276 271 258 265 291 302 296 276 249 239 225 231 203 205 234 229 242 240 259 271 269 306 331 263 208 255 286 298 303 300 302 303 299 295 291 291 293 281 267 266 272 280 282 288 299 304 302 298 297 298 297 295 299 303 301
252 257 260 262 264 265 266 267 268 271 273 275 278 280 283 285 286 288 289 289 289 290 289 289 290 290 291 293 295 289 281 287 289 275 264 255 267 280 281 285 270 255 247 227 223 193 206 243 245 244 249 284 298 307 330 358 311 300 322 327 330 317 309 306 301 293 288 284 285 286 276 270 272 277 275 276 289 309 309 304 302 299 298 299 295 297 303 306
255 258 259 261 262 263 264 265 266 268 270 272 275 278 281 282 285 287 287 290 291 291 290 289 290 289 286 284 274 267 291 296 280 267 258 254 260 266 274 280 267 256 242 225 215 199 210 237 254 254 267 298 321 312 328 340 282 327 333 332 317 309 307 300 293 288 284 282 278 266 267 272 272 280 269 278 297 315 306 304 308 304 303 311 310 306 315 324
255 256 257 258 259 260 261 262 265 266 269 271 274 277 279 281 284 286 288 291 292 294 294 292 293 288 285 278 242 239 288 292 267 261 259 259 262 272 284 279 261 252 235 220 208 205 215 230 250 256 264 287 313 314 324 313 321 329 332 336 309 308 305 291 285 283 280 278 269 245 254 274 273 201 256 281 309 321 312 313 320 320 323 333 336 328 337 358
251 251 252 253 254 256 258 261 263 265 269 272 275 278 280 283 286 288 291 293 295 296 295 295 295 290 288 275 254 261 285 281 267 265 263 266 270 276 283 275 258 247 237 225 210 209 217 228 241 242 246 256 312 323 321 314 341 325 320 335 302 319 305 282 276 274 265 248 260 222 256 288 240 214 256 290 312 320 320 318 323 333 332 333 340 346 23 38
246 245 245 246 249 252 255 259 263 268 272 276 281 284 287 289 291 292 293 295 296 294 295 294 291 291 286 272 271 280 282 270 263 261 262 265 269 273 274 267 257 245 240 231 218 215 222 231 239 239 246 256 272 285 287 314 332 313 300 147 289 343 309 278 277 274 265 224 220 166 172 286 246 235 266 302 309 313 316 312 317 326 327 334 356 36 66 60
244 245 245 247 250 253 257 261 267 273 278 282 287 289 290 292 294 295 296 296 294 291 289 286 286 288 275 268 282 284 272 266 260 256 260 263 265 270 268 260 249 238 234 232 226 223 226 233 242 247 250 253 259 266 302 324 308 286 316 132 253 336 278 283 287 283 303 185 181 158 198 264 270 272 282 300 302 306 308 306 312 320 330 355 60 79 75 61
241 244 245 247 249 252 256 261 269 275 281 285 288 291 294 297 297 298 298 297 294 289 285 282 281 280 272 274 280 275 263 257 253 256 260 263 267 267 260 250 239 231 228 230 230 230 235 236 238 245 251 257 260 271 339 343 296 269 298 302 287 183 253 293 294 262 195 197 172 161 219 259 273 281 290 300 300 303 303 304 315 331 10 68 94 81 73 60
235 237 239 244 247 251 257 264 272 281 288 293 298 301 303 305 304 303 302 297 292 287 282 279 269 261 271 282 278 262 253 246 250 259 258 260 265 262 254 240 228 224 223 227 232 232 239 241 237 237 238 251 207 105 42 2 320 311 187 247 259 222 262 299 307 290 156 145 204 217 235 271 268 281 293 300 298 300 304 309 325 30 79 89 83 71 68 57
232 235 240 247 252 258 264 270 277 285 293 300 306 308 311 311 308 306 303 296 288 282 274 262 251 254 263 268 267 260 256 252 253 256 256 258 260 263 256 226 213 216 218 221 222 220 226 217 196 215 237 252 120 102 45 340 294 304 235 232 243 236 253 272 309 332 120 124 226 245 236 252 263 281 288 295 298 297 308 322 11 87 88 82 77 69 63 55
234 238 243 249 256 264 269 274 277 283 296 306 310 314 318 312 307 306 302 293 279 271 266 236 211 255 266 258 264 274 267 250 250 257 256 253 254 249 220 205 201 188 187 191 191 178 180 185 162 151 318 335 112 128 174 236 225 245 241 247 263 258 265 270 279 253 140 140 228 247 255 252 271 279 277 286 292 303 335 6 87 98 88 83 77 71 66 60
236 238 242 249 255 262 267 272 275 282 299 309 316 323 321 309 304 301 286 264 238 216 259 216 194 214 263 271 282 287 276 252 251 258 244 234 232 203 170 162 168 155 146 140 174 176 161 126 104 108 257 233 218 189 205 221 212 223 231 231 247 256 270 261 259 234 194 249 247 241 254 253 263 268 269 277 287 314 358 76 102 96 90 88 80 77 74 68
235 236 240 246 247 249 253 259 271 285 299 313 327 331 316 308 324 296 245 244 244 247 258 250 247 254 262 274 283 283 273 256 251 248 237 228 216 189 164 154 156 151 150 151 179 195 168 127 145 195 209 219 226 216 217 229 227 235 245 251 244 240 264 261 265 268 186 226 258 239 244 266 266 268 272 277 292 326 59 109 103 98 95 92 88 84 80 77
233 236 238 242 240 238 240 247 268 291 307 325 334 334 316 311 325 289 280 278 272 267 265 265 261 258 262 267 268 270 267 258 248 238 233 215 191 176 170 159 146 182 222 171 148 168 162 166 215 212 211 219 234 229 223 239 240 241 237 247 258 243 257 262 263 270 193 180 263 270 304 288 279 277 280 286 314 15 126 120 108 105 99 94 94 90 87 87
231 235 239 239 234 234 241 252 278 300 325 337 329 330 328 320 305 298 302 289 285 283 272 268 262 254 257 259 255 259 258 254 242 223 218 195 176 182 184 164 154 207 208 155 118 124 172 216 234 225 217 223 252 253 236 246 243 246 230 216 262 260 277 288 283 290 103 168 258 301 306 275 276 271 285 311 64 88 115 120 118 113 105 99 98 95 95 92
233 236 240 235 230 245 250 256 281 306 329 319 307 323 331 328 318 312 306 276 289 293 275 262 258 252 252 252 249 247 241 240 239 219 213 192 179 193 189 169 179 204 194 171 157 164 190 230 235 233 224 219 253 262 256 263 261 250 232 220 259 262 269 281 294 315 311 226 255 281 277 277 276 269 310 36 95 97 99 109 111 111 109 105 102 99 97 94
235 237 235 230 234 256 251 256 281 299 302 287 299 326 341 336 327 323 313 271 283 292 277 262 255 252 250 244 239 235 227 232 240 220 210 197 184 191 193 185 187 196 210 198 185 194 214 222 221 226 225 210 236 258 258 258 273 262 220 205 238 253 227 224 275 327 322 314 309 283 310 307 254 244 286 76 100 99 102 104 100 102 104 103 102 98 95 93
230 230 230 229 237 250 245 251 255 243 227 181 105 356 1 346 332 336 328 306 288 278 268 251 229 234 232 224 222 217 213 226 229 209 200 196 190 186 199 197 190 202 221 210 198 211 235 233 217 219 230 210 218 247 240 215 247 291 236 207 221 239 236 228 280 12 11 322 315 72 336 304 256 240 218 161 120 104 108 101 98 101 100 98 96 94 94 93
224 228 234 235 239 242 239 235 202 168 180 198 173 40 357 341 335 340 348 20 308 256 222 196 192 206 202 201 198 184 185 236 210 191 187 192 195 192 202 205 194 207 217 209 208 221 231 226 213 218 231 209 207 239 228 174 163 278 249 210 210 215 213 213 203 71 48 265 292 66 102 277 277 262 246 218 154 125 111 95 98 101 96 96 94 94 95 93
225 233 242 246 255 248 233 218 194 177 196 217 188 157 239 252 331 348 21 5 290 199 148 157 173 171 163 167 170 160 160 195 166 178 186 190 200 197 210 226 188 208 213 119 231 262 210 193 177 182 204 185 195 237 226 155 139 243 245 151 127 154 171 188 168 175 231 255 317 360 140 257 278 241 245 242 184 125 113 94 92 96 95 96 96 96 96 93
231 236 241 248 255 246 230 215 208 200 200 210 201 190 190 174 197 85 68 341 277 134 126 143 134 152 153 155 163 150 134 149 135 183 193 196 205 197 223 241 180 248 273 131 204 269 247 173 203 175 149 168 204 236 200 149 149 242 229 115 108 131 146 149 132 164 295 348 308 265 154 240 275 248 250 241 183 149 147 129 109 107 104 100 99 99 99 98
236 236 239 241 240 238 230 217 210 204 202 206 202 199 189 178 180 72 89 201 13 104 157 159 131 160 151 146 172 160 128 141 121 178 190 203 205 184 245 258 294 315 291 191 203 267 327 154 208 151 141 207 219 258 153 145 181 223 151 86 66 71 80 78 103 112 22 353 250 221 178 205 270 275 266 215 175 189 163 134 128 121 114 107 103 103 102 101
237 237 236 235 231 230 228 220 209 201 197 196 197 201 198 181 139 108 189 210 36 91 144 145 153 157 139 114 178 208 158 137 119 135 148 189 190 186 318 307 10 52 338 351 255 265 294 55 342 154 185 201 171 65 53 107 154 124 87 48 22 18 39 50 64 85 59 293 243 212 199 191 261 284 249 208 221 175 148 142 140 125 117 113 108 108 106 104
237 237 235 231 226 222 223 218 205 195 191 185 185 186 178 154 123 176 208 205 31 143 133 146 159 139 148 132 156 206 173 139 146 137 125 127 161 197 310 6 26 62 7 337 312 299 315 320 273 222 202 162 115 82 25 39 76 92 77 62 32 346 15 35 6 48 106 253 258 229 206 181 216 263 252 312 316 146 145 155 150 131 120 117 115 116 112 108
238 238 234 227 220 214 214 209 195 187 183 175 170 169 158 166 205 205 211 68 76 192 154 175 182 160 181 175 169 190 166 160 178 158 148 138 147 196 199 179 160 80 340 261 275 322 298 241 238 225 211 172 126 95 338 1 35 81 85 85 71 325 350 25 297 146 212 245 259 224 174 167 229 250 47 14 348 46 112 130 135 130 125 122 123 123 119 116
242 236 228 219 212 211 206 199 190 181 175 169 163 154 135 210 213 189 199 216 201 177 132 132 159 154 150 150 216 191 150 179 185 175 169 138 144 223 243 229 181 135 217 208 238 321 303 296 251 134 271 192 157 159 227 304 97 136 137 130 132 168 207 253 245 242 263 258 252 206 142 202 253 293 37 28 20 69 100 116 126 128 127 127 126 125 122 120
234 223 216 210 209 210 203 196 190 178 171 165 154 132 148 214 218 175 201 233 247 123 97 95 119 97 108 158 218 168 142 213 179 165 172 141 143 237 258 251 215 173 147 169 203 195 234 305 230 180 234 181 174 188 175 143 156 181 160 142 153 168 176 217 223 213 246 264 272 267 211 217 218 359 30 55 68 83 100 113 122 124 127 128 126 127 125 122
220 209 205 207 210 208 199 195 188 177 172 164 145 143 193 196 209 179 206 238 234 125 87 52 97 88 341 258 227 169 141 228 173 150 169 165 169 198 204 221 206 183 143 164 234 185 192 256 244 226 169 162 177 209 155 116 101 226 141 124 197 201 175 212 236 197 186 264 285 265 243 204 146 94 62 81 80 85 98 109 116 120 126 129 130 133 132 128
211 205 205 209 212 209 199 193 186 179 175 164 151 214 201 185 181 188 210 219 184 142 122 69 83 119 256 289 261 222 109 121 167 144 194 199 192 210 207 207 193 186 174 168 216 199 192 256 281 11 7 183 184 213 168 140 186 215 124 183 227 189 140 139 285 260 129 229 254 222 259 306 99 97 70 83 82 88 100 108 116 124 130 134 137 141 140 134
203 201 206 211 213 213 202 191 187 184 178 171 193 213 192 198 192 188 206 140 151 137 131 152 156 154 195 261 265 229 81 24 183 146 217 219 214 216 200 185 145 187 184 167 214 207 160 266 274 141 193 241 186 104 354 73 115 130 169 229 250 69 94 107 249 290 266 245 252 240 255 259 225 229 150 108 114 122 132 126 127 135 139 142 146 148 146 141
199 199 208 215 215 209 198 192 190 186 180 181 222 216 186 205 200 182 176 152 138 103 124 182 190 132 158 188 269 217 108 49 151 145 210 238 231 162 151 141 27 38 60 119 174 229 105 285 281 204 167 234 53 60 351 356 47 120 175 235 69 68 288 312 159 223 250 256 269 259 247 243 232 207 169 170 172 162 162 151 144 149 151 154 157 157 156 153
197 197 209 215 210 203 194 191 188 185 185 200 220 215 186 203 224 193 156 124 114 124 131 187 180 109 158 170 178 181 140 199 223 180 175 236 243 55 72 104 45 25 21 80 149 239 92 170 277 306 116 133 37 63 201 288 358 62 45 350 73 163 199 227 212 192 226 255 267 256 241 247 252 195 174 191 186 167 165 163 162 168 167 168 167 166 168 168
189 189 214 207 198 195 189 187 187 186 194 216 201 189 137 179 231 223 202 178 130 137 173 174 156 185 215 200 215 228 207 220 224 214 207 233 258 356 43 49 121 40 20 51 102 76 66 172 239 313 348 65 159 200 181 180 159 63 21 336 285 262 231 263 261 178 167 226 256 257 250 254 268 269 205 196 178 164 166 159 162 176 176 177 175 174 177 179
181 178 252 197 188 186 182 184 192 193 199 209 168 153 163 175 219 229 227 220 198 171 172 172 177 196 200 210 214 202 201 210 200 202 221 240 247 243 356 58 90 119 28 42 59 76 78 183 196 275 295 219 225 230 169 142 146 154 172 206 210 215 244 275 268 224 163 201 228 247 260 263 266 324 328 163 151 152 157 153 164 182 184 186 187 187 191 197
173 161 238 192 184 180 179 185 201 201 207 201 163 164 179 172 173 206 214 209 197 188 171 178 199 197 193 207 201 183 188 202 201 207 220 227 220 208 175 112 86 89 93 74 359 82 97 128 156 240 245 225 240 252 228 155 181 173 178 204 198 184 172 216 249 252 240 262 269 262 265 267 236 302 346 116 143 155 160 162 174 187 192 193 194 200 211 222
166 162 170 187 185 180 179 200 222 206 238 205 170 184 189 178 181 190 189 189 187 177 174 189 196 200 215 215 204 202 195 200 220 212 202 218 222 180 167 177 128 85 87 120 268 40 71 103 178 258 282 297 298 304 349 16 51 145 317 359 158 187 172 187 225 218 128 259 273 274 258 247 237 300 18 132 149 159 169 179 186 191 196 199 205 216 226 229
168 176 180 182 183 181 183 213 204 205 234 199 177 210 212 213 208 190 179 186 187 165 161 195 195 204 220 206 199 210 199 206 247 225 197 199 200 119 116 161 167 128 98 195 190 159 131 141 155 187 319 321 327 341 355 4 32 113 265 259 142 134 79 91 76 75 133 236 231 233 246 236 219 316 16 137 152 168 191 199 196 197 201 209 222 229 228 224
163 181 199 194 187 190 203 227 189 201 218 208 214 214 211 223 217 205 194 188 190 181 170 204 198 193 196 183 190 209 203 201 226 225 195 185 201 78 95 125 147 133 113 145 151 150 166 174 140 150 219 249 267 270 241 289 356 27 277 295 249 228 256 358 18 245 227 237 201 230 248 256 261 243 199 209 204 202 215 216 214 217 222 228 236 235 226 217
165 175 204 197 190 200 220 232 223 230 212 204 221 221 214 229 222 203 197 196 200 194 183 192 187 177 181 181 184 210 217 204 191 200 186 171 215 345 118 130 138 137 128 127 136 132 121 228 175 169 206 228 228 227 199 122 75 264 284 297 284 266 215 154 176 224 217 335 275 249 248 267 277 265 224 212 223 225 229 227 224 228 234 240 243 236 222 213
171 182 187 179 186 206 225 231 224 227 215 199 201 212 214 223 229 203 202 203 198 192 189 211 183 180 189 185 184 206 207 192 192 202 188 171 184 119 134 129 130 146 143 135 147 122 92 251 226 177 208 232 211 215 227 88 159 223 248 273 279 278 256 180 202 215 172 247 266 257 252 253 263 267 259 226 211 219 233 234 233 238 246 249 245 232 216 210
182 212 194 182 183 199 211 216 213 214 221 213 205 221 221 219 219 211 204 199 188 186 189 223 205 197 186 176 178 195 193 189 203 204 186 175 167 133 131 77 118 161 154 137 161 122 109 233 240 164 217 257 240 236 302 31 212 226 234 251 265 269 267 256 246 233 210 229 259 265 265 259 257 266 268 246 229 229 234 240 245 251 254 251 240 223 213 215
199 236 205 192 203 214 207 208 204 205 216 216 212 226 227 223 222 211 178 160 184 193 193 205 207 194 185 177 170 178 190 188 201 213 182 160 162 157 157 10 46 176 147 113 157 115 105 227 242 160 224 273 264 259 338 344 259 267 257 252 255 260 264 262 253 248 235 236 251 259 263 264 264 263 260 258 257 249 230 225 234 241 245 237 222 216 218 224
198 220 214 208 232 236 222 213 197 198 214 213 215 227 227 228 226 207 172 179 189 192 197 203 194 181 188 190 178 193 208 183 183 205 180 158 173 176 174 197 169 147 79 86 176 53 98 173 219 123 319 287 261 169 57 276 261 274 272 264 258 259 264 257 252 257 257 251 251 254 258 263 268 266 256 251 250 234 174 160 170 188 213 215 216 222 227 230
197 198 219 279 243 217 217 201 184 194 213 209 215 221 219 226 216 181 158 222 194 185 198 192 172 153 171 176 178 198 196 154 152 159 147 149 162 151 137 169 151 129 88 134 155 3 96 158 292 80 64 278 265 111 153 275 285 277 270 264 256 251 250 249 247 243 245 252 259 261 258 259 263 260 249 237 203 159 160 151 154 174 194 216 232 233 232 232
211 225 240 285 257 217 204 177 178 194 206 209 217 217 218 227 208 169 176 281 177 185 211 193 166 134 147 173 177 171 150 132 128 124 113 113 118 106 101 131 143 139 142 146 146 195 126 126 129 103 129 269 280 111 152 259 293 268 259 252 248 247 246 250 254 245 241 247 255 256 253 251 244 230 226 224 174 189 211 194 173 171 179 204 230 233 233 237